User: anonymous   Login
Location: Unspecified
(0.0000°N, 0.0000°E)
Time: 15:50:28
(UTC+00:00)
Language:

Aussat K2 - Orbit

View from above orbital plane
View from above orbital plane
View from above satellite
View from above satellite

Ground track
Ground track

The orbit data is extracted from the following two-line orbital elements,

1 16275U 85109C   14325.80036230  .00000123  00000-0  00000+0 0  5442
2 16275 014.7607 018.7671 0006158 189.8191 178.0578 00.99941162 95859
Epoch (UTC): 21 November 2014 19:12:31
Eccentricity: 0.0006158
inclination: 14.7607°
perigee height: 35853 km
apogee height: 35905 km
right ascension of ascending node: 18.7671°
argument of perigee: 189.8191°
revolutions per day: 0.99941162
mean anomaly at epoch: 178.0578°
orbit number at epoch: 9585

The dashed part of the orbit path shows where the satellite is in the earth's shadow,  

DLR